Simultaneous Nadir Overpasses (SNOs) Predictions

Prediction of SNOs between NOAA-19 and TERRA Satellite Orbit:

Table of predicted SNOs for the next 14.0 days since TLE Epoch: 4/29/2023
Index Date (NOAA-19) Time (NOAA-19) Lat,Lon (NOAA-19) SZA (NOAA-19 ) Date (TERRA) Time (TERRA) Lat,Lon (TERRA) SZA (TERRA ) Distance(km) Time Diff (sec)
1 04/30/2023 18:48:18 -80.93, 112.00 112.29 04/30/2023 18:49:18 -80.92, 111.90 112.28 1.68 60
2 04/30/2023 19:39:11 80.93, -80.21 67.75 04/30/2023 19:38:40 80.94, -80.27 67.74 1.31 31
3 05/02/2023 22:38:47 80.93,-125.71 67.06 05/02/2023 22:39:43 80.92,-125.75 67.08 0.85 56
4 05/02/2023 23:29:51 -80.93, 41.88 112.92 05/02/2023 23:29:05 -80.93, 41.96 112.93 1.34 46
5 05/05/2023 02:29:26 -80.93, -3.24 113.55 05/05/2023 02:30:07 -80.93, -3.30 113.54 0.99 41
6 05/05/2023 03:20:19 80.93, 164.44 66.48 05/05/2023 03:19:29 80.94, 164.51 66.48 1.63 50
7 05/07/2023 06:19:54 80.93, 119.23 65.86 05/07/2023 06:20:31 80.93, 119.11 65.87 2.13 37
8 05/07/2023 07:10:58 -80.93, -73.12 114.11 05/07/2023 07:09:53 -80.94, -73.16 114.14 1.02 65
9 05/09/2023 10:10:34 -80.92,-118.75 114.76 05/09/2023 10:10:55 -80.92,-118.67 114.75 1.58 21
10 05/09/2023 11:01:26 80.93, 49.29 65.31 05/09/2023 11:00:17 80.93, 49.11 65.27 3.23 69



Historial Predications of SNOs between NOAA-19 and TERRA
